Wetbulb
75.37 74.87 74.37 71.21 56.68 54.84 51.38 55.02 59.38 57.37 58.00 62.28 63.51 61.47 60.82 61.90 57.88 47.75 66.87 70.55 72.58 72.91 74.35 75.80 77.28 77.01 77.04 77.00 77.05 76.96 77.38 77.01 77.25 77.50 77.17 77.09 76.98 77.13 77.23 77.20 77.12 77.18 76.91 76.91 76.78 76.57 76.43 76.31 76.18
74.81 74.29 72.13 64.86 52.96 49.59 51.49 57.82 58.52 61.17 62.57 64.46 64.57 64.04 62.47 60.89 65.74 66.22 67.60 72.35 72.68 74.04 74.27 75.22 77.32 77.04 77.03 76.71 76.93 77.20 77.20 77.33 77.44 77.40 77.22 77.33 77.13 77.28 76.82 77.02 76.78 76.94 76.48 75.81 76.22 76.25 75.88 75.90 75.86
75.97 75.55 65.41 58.62 52.35 49.67 52.11 59.06 60.57 62.15 64.05 63.24 62.25 64.97 63.91 62.19 66.61 67.66 70.77 72.81 73.55 73.45 74.32 74.85 76.96 76.91 76.27 76.59 77.01 76.89 77.11 76.93 76.69 77.09 76.91 77.09 77.23 77.12 76.80 76.98 76.55 76.19 75.86 75.92 75.92 75.70 75.52 75.35 75.26
69.89 66.98 65.62 55.14 52.87 56.30 58.07 59.74 62.27 61.48 63.22 64.25 64.20 61.57 66.07 68.53 67.95 70.26 72.26 73.03 72.68 73.60 75.00 76.08 76.64 76.56 76.58 76.58 75.57 74.54 76.39 76.69 77.16 76.91 76.97 77.31 77.08 77.34 76.51 75.98 75.42 74.99 74.91 74.91 74.96 75.35 75.29 75.10 74.93
71.25 65.86 56.92 54.25 55.32 58.98 60.47 61.87 61.36 60.29 61.58 62.80 63.82 61.51 63.15 68.28 71.15 71.67 72.11 72.54 72.63 73.61 74.56 75.00 76.43 76.87 75.65 75.32 75.88 75.46 74.27 75.98 76.14 76.09 76.95 77.33 76.86 76.40 75.92 75.42 74.93 74.66 75.04 75.50 75.56 74.99 75.10 75.71 75.48
62.34 64.25 53.90 51.41 55.89 58.66 60.15 61.96 62.59 61.79 62.81 63.15 62.66 62.21 64.07 69.87 70.12 71.21 72.18 72.83 73.92 73.55 74.48 75.00 76.87 76.02 75.34 75.32 76.35 76.58 74.60 74.65 75.65 75.61 76.11 76.40 76.16 75.76 75.36 75.07 74.52 74.30 74.66 75.33 75.54 75.21 75.38 75.52 75.48
60.15 59.22 54.24 54.48 56.17 57.54 59.08 64.16 61.52 61.26 61.61 61.43 64.71 60.95 65.29 67.92 70.65 71.49 72.27 73.29 73.87 74.31 74.35 73.98 73.72 74.22 76.15 76.67 76.68 77.13 75.98 74.74 74.93 75.36 75.46 75.65 75.49 75.06 74.93 74.65 74.52 74.13 74.19 74.60 74.85 74.77 74.90 74.80 74.82
63.50 61.01 57.24 56.65 56.62 57.56 61.70 62.74 64.43 62.40 61.28 66.29 66.54 60.19 61.70 67.49 71.15 71.74 72.17 72.67 73.05 73.29 73.56 73.14 73.27 73.05 73.53 73.85 75.39 75.25 75.45 74.93 74.93 75.25 75.33 75.03 75.01 75.29 74.80 74.96 74.94 74.63 74.24 74.14 74.67 74.82 75.86 75.38 75.36
66.62 56.14 52.78 56.94 58.21 58.79 62.88 61.09 64.57 66.44 63.49 65.27 66.20 65.01 67.47 70.42 70.97 70.20 70.24 70.49 71.39 72.39 72.43 73.06 72.78 72.05 72.72 73.71 74.37 75.97 75.73 75.62 75.51 75.32 75.73 75.24 73.53 73.77 74.28 74.93 75.42 75.46 75.21 74.09 74.81 76.01 76.54 73.97 74.76
62.51 56.46 55.67 60.85 61.37 60.56 62.36 61.86 62.56 62.65 62.92 62.99 64.93 68.07 69.68 69.91 69.05 68.39 68.42 68.23 69.05 69.84 71.65 72.58 72.00 71.74 72.16 74.11 73.68 73.64 75.00 74.47 74.66 74.89 75.00 74.76 74.38 74.48 74.93 74.88 76.45 77.15 77.02 77.20 77.66 78.09 76.28 73.08 72.35
64.73 59.48 62.90 63.07 63.18 63.72 61.90 61.55 63.96 61.90 60.32 62.61 63.52 66.09 68.10 68.23 67.66 67.55 68.02 68.48 68.50 69.39 71.13 71.61 71.11 71.77 71.59 70.38 71.95 71.79 72.31 72.93 73.33 73.22 73.35 73.53 74.20 73.58 74.27 75.22 74.70 76.10 77.89 72.13 74.06 77.89 74.43 72.39 72.88
60.25 63.76 63.97 64.08 64.15 62.81 61.50 63.18 61.52 62.02 62.26 65.95 67.03 67.92 67.75 67.30 66.86 67.32 67.49 67.97 68.18 69.01 70.38 71.54 71.23 71.29 71.00 71.46 70.81 70.90 71.85 72.55 70.07 70.90 73.11 71.72 72.19 72.77 72.47 72.64 73.59 73.98 73.80 71.18 74.19 73.33 72.85 71.55 71.60
61.90 63.77 64.16 64.58 63.56 63.11 64.00 61.80 61.49 62.55 65.83 67.32 67.84 67.82 66.95 67.14 67.02 67.92 68.74 68.42 68.56 68.37 69.96 70.67 70.99 70.84 71.14 71.59 69.96 70.49 71.26 72.04 71.80 67.63 69.38 69.54 71.83 71.89 71.54 73.20 73.83 73.11 69.73 71.06 72.43 72.02 70.67 70.69 71.47
64.05 63.35 62.65 63.87 62.98 63.37 61.68 61.40 62.02 63.87 66.51 66.10 66.56 66.45 66.94 66.84 67.18 67.42 67.68 67.91 68.48 68.90 69.04 70.18 70.64 70.91 70.86 71.01 70.61 69.87 70.32 71.32 69.62 69.73 66.04 68.46 70.40 72.43 71.47 72.74 73.58 72.90 73.10 73.12 72.05 71.33 70.97 70.42 71.05
63.74 59.69 61.42 62.32 62.72 61.39 62.21 58.38 58.83 64.27 66.02 64.90 65.45 66.00 66.61 67.05 67.85 66.89 68.15 68.24 69.24 69.02 68.97 68.21 69.42 70.84 70.47 70.29 70.68 70.29 70.09 69.88 68.82 68.56 72.11 69.75 71.28 72.04 73.07 72.70 72.53 72.81 72.53 70.97 70.20 70.10 70.54 69.38 69.34
59.93 58.32 52.65 60.64 62.47 62.13 60.12 53.10 59.98 64.43 64.17 63.54 64.70 65.58 66.33 66.66 67.46 68.03 68.67 68.86 69.70 69.51 68.26 67.97 70.25 70.73 70.48 69.68 69.64 69.70 69.96 69.48 68.63 68.93 71.69 71.96 69.46 71.77 71.84 72.61 72.14 72.16 72.30 70.51 69.42 70.28 70.37 70.11 70.39
56.97 51.80 53.49 57.42 63.34 61.41 58.34 55.00 59.72 62.62 62.99 62.62 63.82 64.60 65.54 66.21 66.70 67.88 69.02 69.29 69.66 69.73 68.84 67.39 69.26 70.56 70.24 69.02 68.79 70.03 71.57 71.78 71.43 71.15 71.47 73.23 72.98 73.57 71.57 71.20 72.21 72.16 71.72 71.43 69.66 70.73 71.15 70.88 70.48
53.24 52.77 54.63 54.44 60.02 60.07 57.44 56.43 58.44 60.32 60.66 60.66 61.43 63.19 64.19 64.75 65.42 67.63 68.62 69.93 69.73 69.69 68.88 68.34 70.11 71.04 70.32 70.91 71.50 71.86 71.00 71.31 72.68 71.58 72.02 73.55 73.36 73.20 71.42 72.63 72.88 71.57 72.15 72.01 70.87 72.29 71.76 71.26 71.04
58.44 56.19 56.29 57.92 62.15 58.85 58.39 57.23 57.42 59.24 58.53 58.49 58.73 59.77 60.80 61.54 64.80 67.29 68.34 69.82 69.42 69.09 68.99 68.52 69.83 70.58 69.85 70.43 70.59 69.95 70.04 70.98 71.53 71.57 72.51 72.73 73.43 73.86 72.71 73.50 73.78 73.25 72.48 71.91 71.63 71.64 71.18 70.68 71.24
58.43 56.31 55.95 59.00 61.39 58.98 56.31 55.36 58.67 59.23 59.48 59.98 59.89 60.33 61.10 61.89 63.54 65.33 67.24 68.99 68.77 68.76 69.01 69.18 69.78 69.67 70.22 70.68 70.64 70.64 71.12 72.04 71.39 72.13 72.77 72.58 72.78 73.24 73.27 72.61 72.22 72.35 73.59 72.79 72.60 72.87 72.46 70.91 70.82
55.77 55.07 55.36 54.95 59.98 60.50 57.04 53.69 55.74 59.89 61.24 61.94 62.25 62.68 62.91 62.90 63.50 64.64 66.46 67.85 68.81 68.86 68.79 69.07 69.74 69.40 69.81 70.35 71.04 71.70 71.60 71.46 70.71 71.42 71.02 71.98 72.09 71.86 71.53 70.94 70.74 70.56 72.21 71.80 71.98 72.81 72.08 70.98 71.94
51.04 58.47 58.76 57.99 54.38 50.19 57.40 48.08 53.07 56.19 58.30 60.26 61.67 60.99 62.87 64.11 64.80 65.74 66.21 66.99 68.62 69.32 69.84 69.43 69.20 69.73 69.91 70.25 70.42 70.75 70.29 69.18 70.17 70.17 70.18 70.40 72.96 72.49 71.55 70.28 70.49 70.80 72.09 70.58 71.18 71.76 71.69 71.71 69.96
54.93 59.40 58.97 57.70 52.74 51.15 52.82 49.79 52.18 55.66 55.24 57.63 60.76 61.86 63.00 64.64 65.33 65.50 66.35 67.31 68.71 70.12 69.78 69.36 68.91 69.71 70.50 70.32 70.32 70.18 69.89 70.26 70.20 69.23 68.66 69.31 70.84 71.13 70.63 70.07 69.95 69.10 69.58 69.44 69.28 69.03 69.09 70.17 69.79
60.53 57.58 55.30 53.42 51.74 46.79 50.32 50.72 49.64 51.64 55.20 57.99 60.56 61.99 62.31 64.44 65.73 66.42 67.65 68.43 68.40 69.77 70.23 69.56 69.33 69.65 70.63 70.47 70.81 70.46 70.06 69.63 67.96 67.56 69.03 67.65 68.19 68.82 68.09 67.33 67.78 67.20 66.55 66.42 67.02 67.47 66.64 66.33 66.37
57.30 52.06 47.67 44.85 44.68 44.76 47.61 49.26 51.86 55.39 58.69 58.71 60.27 61.48 62.93 64.56 65.36 65.70 66.22 67.23 67.61 68.22 68.87 69.52 69.42 69.13 70.17 70.72 70.85 70.25 69.85 69.18 68.33 68.24 67.08 67.38 65.89 64.86 63.69 64.11 63.26 63.37 63.46 63.91 64.37 63.55 63.25 62.96 62.58
54.19 48.79 46.74 39.58 41.02 43.26 49.82 46.95 51.24 59.55 62.21 63.32 62.65 62.62 62.83 63.67 65.25 65.77 66.39 67.47 68.11 68.72 69.14 69.73 69.10 68.62 69.25 68.75 67.51 67.44 67.58 67.40 67.01 66.32 65.71 63.49 62.05 62.21 61.90 60.97 61.10 61.11 60.90 60.69 60.68 59.76 60.68 60.91 61.06
51.73 48.78 46.96 38.84 37.10 41.12 46.17 50.09 56.03 59.47 59.36 61.14 61.77 62.93 63.56 63.49 64.26 63.61 64.73 66.62 67.89 69.07 69.48 68.30 66.41 65.98 65.32 65.04 64.94 64.00 64.27 63.63 62.37 62.45 62.54 62.46 62.98 62.21 60.43 60.62 60.00 60.07 59.79 59.56 59.44 58.23 58.22 59.10 59.74
48.04 49.37 41.67 38.96 34.43 33.78 38.27 45.32 48.30 54.02 56.99 58.36 58.08 57.85 59.07 59.75 60.39 60.87 61.45 61.92 63.24 64.68 65.33 64.59 63.67 63.09 63.59 63.85 63.20 62.52 62.01 61.80 61.49 61.72 61.17 61.49 62.08 61.39 60.28 59.48 59.59 59.71 59.27 57.96 58.18 57.16 57.08 56.96 56.22
42.83 42.78 39.81 40.83 38.78 37.35 36.21 41.75 57.25 55.88 58.23 57.05 57.42 58.16 59.00 59.50 59.82 60.74 61.26 62.02 63.17 64.21 63.45 62.93 63.00 63.05 62.80 62.49 61.69 61.24 61.59 61.77 61.88 61.44 61.44 61.11 60.88 60.68 59.72 60.29 60.07 59.67 58.20 57.25 56.99 56.79 56.28 55.39 55.05
41.71 39.36 40.80 39.01 36.61 35.81 38.13 39.92 59.51 58.64 58.71 58.03 58.35 59.06 59.86 60.99 60.08 60.64 61.30 61.56 62.00 62.50 62.96 63.76 63.31 62.60 62.32 61.66 61.63 61.21 61.30 61.72 60.98 59.89 59.74 59.52 58.41 58.49 57.86 58.38 58.17 57.94 57.73 56.05 55.68 55.30 55.46 54.77 53.75
MSLP
1010.26 1010.17 1010.30 1010.51 1011.43 1011.74 1012.13 1012.48 1012.32 1012.96 1013.50 1013.64 1014.03 1014.53 1015.08 1015.58 1015.86 1016.83 1016.64 1016.59 1016.35 1016.52 1016.47 1016.60 1016.63 1016.73 1016.75 1016.89 1017.01 1017.11 1017.03 1017.09 1017.10 1017.18 1017.24 1017.22 1017.24 1017.29 1017.36 1017.37 1017.37 1017.43 1017.59 1017.70 1017.78 1017.91 1018.04 1018.06 1018.14
1010.34 1010.53 1010.57 1010.94 1011.74 1012.23 1012.50 1012.34 1012.55 1012.99 1013.62 1013.67 1014.21 1014.49 1014.94 1015.76 1016.03 1016.54 1016.63 1016.51 1016.35 1016.49 1016.69 1016.82 1016.82 1016.89 1017.01 1017.23 1017.31 1017.28 1017.32 1017.35 1017.38 1017.40 1017.53 1017.44 1017.49 1017.54 1017.71 1017.66 1017.72 1017.76 1017.87 1017.93 1017.95 1018.04 1018.18 1018.27 1018.38
1010.49 1010.43 1010.97 1011.37 1011.95 1012.27 1012.20 1012.42 1012.69 1013.11 1013.37 1013.70 1014.25 1014.57 1015.02 1015.79 1016.34 1016.41 1016.22 1016.30 1016.37 1016.72 1016.91 1016.95 1016.99 1017.11 1017.32 1017.39 1017.42 1017.53 1017.49 1017.59 1017.58 1017.62 1017.64 1017.71 1017.71 1017.80 1017.93 1017.97 1018.03 1018.02 1018.05 1018.17 1018.24 1018.35 1018.53 1018.60 1018.62
1010.58 1010.78 1011.34 1011.48 1011.62 1011.52 1011.63 1012.07 1012.30 1012.87 1013.38 1013.83 1014.05 1014.87 1015.41 1015.76 1015.98 1016.04 1016.24 1016.26 1016.77 1017.06 1017.12 1017.09 1017.17 1017.30 1017.54 1017.64 1017.75 1017.83 1017.86 1017.83 1017.77 1017.83 1017.90 1017.93 1018.03 1018.07 1018.27 1018.30 1018.29 1018.19 1018.29 1018.47 1018.56 1018.66 1018.72 1018.70 1018.71
1010.76 1011.18 1011.53 1011.62 1011.32 1011.40 1011.44 1011.96 1012.04 1012.51 1013.21 1013.81 1013.95 1015.24 1015.73 1016.21 1016.02 1016.36 1016.53 1016.74 1017.04 1017.29 1017.28 1017.39 1017.51 1017.57 1017.68 1017.85 1017.93 1017.98 1018.04 1018.02 1018.05 1018.10 1018.19 1018.22 1018.33 1018.48 1018.53 1018.53 1018.52 1018.44 1018.39 1018.50 1018.65 1018.65 1018.67 1018.71 1018.88
1011.12 1011.81 1011.81 1011.77 1011.54 1011.51 1011.75 1011.93 1012.12 1012.79 1013.44 1014.03 1014.66 1015.31 1016.42 1016.53 1016.50 1016.81 1016.92 1017.07 1017.12 1017.40 1017.56 1017.65 1017.65 1017.78 1017.91 1017.99 1017.96 1018.07 1018.18 1018.18 1018.27 1018.40 1018.56 1018.65 1018.76 1018.75 1018.78 1018.80 1018.78 1018.66 1018.59 1018.64 1018.68 1018.66 1018.79 1018.87 1018.73
1011.64 1011.91 1011.81 1011.52 1011.58 1011.59 1011.80 1011.87 1012.40 1013.14 1013.61 1014.09 1014.47 1015.61 1016.69 1016.95 1016.87 1017.08 1017.27 1017.29 1017.32 1017.59 1017.81 1017.99 1017.98 1018.02 1018.06 1018.09 1018.09 1018.20 1018.36 1018.48 1018.52 1018.63 1018.75 1018.87 1018.89 1018.96 1019.02 1018.91 1018.87 1018.83 1018.89 1018.85 1018.73 1018.67 1018.77 1018.64 1018.59
1011.85 1012.04 1011.49 1010.99 1011.05 1011.23 1011.52 1012.12 1012.51 1013.12 1013.78 1013.96 1014.36 1015.60 1016.42 1016.74 1017.04 1017.46 1017.68 1017.86 1018.01 1018.00 1018.15 1018.30 1018.37 1018.37 1018.43 1018.43 1018.41 1018.46 1018.61 1018.73 1018.75 1018.74 1018.83 1018.86 1018.79 1018.95 1018.90 1018.99 1018.93 1018.92 1018.93 1018.90 1018.76 1018.70 1018.64 1018.55 1018.52
1011.82 1011.80 1011.19 1010.52 1010.52 1010.83 1011.26 1011.80 1012.56 1013.08 1013.58 1013.92 1014.18 1014.86 1015.78 1016.76 1017.28 1017.81 1018.19 1018.41 1018.48 1018.57 1018.64 1018.54 1018.56 1018.61 1018.70 1018.72 1018.62 1018.62 1018.71 1018.83 1018.79 1018.80 1018.84 1018.75 1019.01 1018.99 1018.81 1018.86 1018.79 1018.78 1018.84 1018.86 1018.74 1018.63 1018.61 1018.56 1018.49
1011.51 1011.48 1010.40 1009.51 1009.56 1010.07 1010.86 1011.53 1012.40 1013.24 1013.77 1014.51 1014.73 1015.53 1016.24 1016.96 1017.52 1018.00 1018.30 1018.51 1018.68 1018.77 1018.70 1018.52 1018.65 1018.85 1018.88 1018.71 1018.72 1018.83 1018.87 1018.97 1018.98 1019.04 1018.89 1018.75 1018.93 1019.05 1019.02 1018.80 1018.66 1018.53 1018.50 1018.57 1018.60 1018.64 1018.63 1018.50 1018.57
1011.03 1010.56 1009.34 1008.94 1009.08 1009.58 1010.92 1011.72 1012.29 1013.13 1013.87 1014.20 1014.35 1015.53 1016.39 1017.09 1017.70 1018.03 1018.22 1018.25 1018.40 1018.72 1018.75 1018.73 1018.73 1018.92 1018.97 1018.90 1018.92 1019.06 1019.07 1019.08 1019.10 1019.03 1018.94 1018.88 1018.83 1019.01 1018.82 1018.89 1018.72 1018.43 1018.32 1018.63 1018.64 1018.72 1018.65 1018.60 1018.69
1010.44 1009.56 1009.06 1008.66 1009.18 1009.89 1010.91 1011.60 1012.47 1012.89 1013.24 1013.93 1014.78 1015.20 1016.00 1016.86 1017.40 1017.66 1017.97 1018.26 1018.37 1018.58 1018.75 1018.82 1018.79 1018.93 1018.97 1019.00 1019.07 1019.15 1019.08 1019.09 1019.14 1019.02 1019.05 1019.11 1019.14 1018.83 1018.79 1018.82 1018.65 1018.47 1018.48 1018.97 1019.16 1019.13 1018.80 1018.63 1018.77
1009.75 1009.36 1008.97 1008.87 1009.52 1010.07 1010.91 1011.76 1012.37 1013.20 1013.46 1014.25 1015.03 1015.68 1016.07 1016.68 1017.22 1017.46 1017.71 1017.98 1018.40 1018.69 1018.62 1018.68 1018.75 1018.81 1018.86 1018.98 1018.98 1019.07 1019.10 1019.15 1019.27 1019.26 1019.14 1019.07 1019.11 1019.06 1018.73 1018.76 1018.70 1018.52 1018.73 1018.99 1019.09 1018.94 1018.92 1018.93 1018.99
1009.64 1009.39 1009.50 1009.64 1010.09 1010.54 1011.15 1012.21 1012.47 1013.73 1013.90 1014.59 1015.14 1015.64 1016.16 1016.55 1016.89 1017.36 1017.65 1017.80 1018.00 1018.31 1018.59 1018.52 1018.54 1018.43 1018.64 1018.87 1018.93 1018.89 1018.91 1019.08 1019.29 1019.36 1019.27 1019.12 1019.17 1019.23 1018.99 1019.01 1018.96 1018.75 1019.06 1018.98 1018.94 1019.06 1018.90 1019.07 1018.84
1009.53 1009.75 1010.14 1010.72 1010.82 1011.31 1011.64 1012.70 1012.99 1013.54 1014.10 1014.74 1015.30 1015.66 1015.98 1016.31 1016.81 1016.90 1016.96 1017.41 1017.63 1017.80 1018.17 1018.39 1018.41 1018.39 1018.63 1018.85 1018.81 1018.85 1018.69 1018.73 1019.09 1019.23 1019.21 1019.15 1019.11 1019.13 1018.82 1018.86 1018.80 1018.63 1018.87 1019.07 1019.17 1019.23 1019.25 1019.40 1019.10
1010.53 1010.81 1011.13 1011.17 1011.09 1011.85 1011.98 1012.89 1013.31 1013.78 1014.26 1014.87 1015.31 1015.56 1015.81 1016.00 1016.28 1016.43 1016.75 1017.04 1017.32 1017.72 1017.93 1018.16 1018.22 1018.36 1018.51 1018.74 1018.80 1018.83 1018.78 1018.80 1018.83 1018.96 1019.04 1019.00 1019.04 1019.11 1019.26 1019.17 1019.00 1018.77 1018.79 1019.00 1019.18 1019.15 1019.02 1018.77 1018.42
1011.83 1012.05 1011.81 1011.42 1011.09 1011.39 1012.23 1012.96 1013.29 1013.78 1014.39 1014.96 1015.20 1015.32 1015.48 1015.91 1016.10 1016.18 1016.23 1016.61 1016.87 1017.28 1017.70 1017.99 1018.14 1018.26 1018.42 1018.60 1018.63 1018.76 1018.79 1018.85 1018.71 1018.87 1018.92 1018.85 1018.80 1018.91 1019.18 1019.21 1019.07 1018.81 1018.79 1018.98 1019.19 1019.32 1019.31 1019.15 1018.84
1012.03 1012.14 1011.81 1011.23 1011.09 1011.39 1012.17 1012.70 1013.26 1013.69 1014.07 1014.53 1014.90 1015.08 1015.21 1015.24 1015.06 1015.37 1015.74 1016.09 1016.47 1016.93 1017.39 1017.80 1018.08 1018.19 1018.54 1018.70 1018.69 1018.58 1018.51 1018.59 1018.77 1018.82 1018.75 1018.69 1018.68 1018.68 1018.93 1018.92 1018.95 1018.94 1018.95 1019.21 1019.24 1019.30 1019.23 1019.26 1019.19
1011.20 1011.40 1011.66 1011.69 1011.62 1012.06 1012.40 1012.83 1013.18 1013.40 1014.00 1014.34 1014.56 1014.64 1014.76 1014.70 1014.44 1014.89 1015.33 1015.83 1016.30 1016.83 1017.34 1017.58 1017.99 1018.07 1018.50 1018.65 1018.79 1018.92 1018.86 1018.84 1018.61 1018.61 1018.60 1018.60 1018.59 1018.70 1018.77 1018.76 1018.85 1018.87 1019.14 1019.36 1019.51 1019.52 1019.65 1019.41 1019.27
1011.33 1011.45 1011.88 1012.14 1012.24 1012.59 1013.31 1013.24 1013.21 1013.11 1012.93 1013.11 1013.62 1013.97 1013.99 1014.28 1014.47 1014.60 1014.96 1015.36 1015.82 1016.20 1016.68 1017.29 1017.45 1017.76 1018.13 1018.44 1018.47 1018.42 1018.47 1018.59 1018.73 1018.72 1018.96 1019.28 1019.14 1019.16 1019.11 1019.12 1019.07 1019.06 1019.24 1019.37 1019.40 1019.51 1019.49 1019.58 1019.50
1011.29 1011.51 1011.90 1012.68 1012.94 1013.37 1013.64 1013.31 1012.83 1012.59 1012.57 1012.62 1012.70 1012.94 1013.35 1013.42 1013.83 1014.17 1014.62 1014.81 1015.35 1015.89 1016.25 1016.77 1017.24 1017.48 1017.84 1018.18 1018.48 1018.57 1018.68 1018.87 1019.06 1019.23 1019.50 1019.43 1019.65 1019.49 1019.49 1019.52 1019.54 1019.62 1019.58 1019.70 1019.74 1019.63 1019.54 1019.70 1019.69
1011.01 1011.18 1012.30 1013.20 1013.89 1014.71 1014.88 1014.49 1012.79 1012.04 1011.67 1011.77 1011.89 1012.22 1012.26 1012.64 1012.89 1013.44 1013.86 1014.38 1014.64 1015.02 1015.60 1016.18 1016.74 1017.14 1017.49 1017.87 1018.20 1018.27 1018.36 1018.71 1018.95 1019.22 1019.64 1019.66 1019.36 1019.40 1019.50 1019.71 1019.67 1019.80 1019.86 1019.90 1019.87 1019.95 1020.08 1020.15 1020.22
1010.99 1010.86 1012.32 1013.71 1014.94 1015.63 1015.57 1015.56 1012.50 1012.16 1011.74 1010.72 1010.86 1011.07 1011.34 1011.68 1012.24 1012.67 1013.16 1013.51 1013.91 1014.67 1015.13 1015.65 1016.30 1016.87 1017.25 1017.60 1017.98 1018.22 1018.35 1018.52 1018.82 1019.22 1019.51 1019.75 1019.54 1019.55 1019.62 1019.85 1020.02 1020.15 1020.15 1020.10 1020.27 1020.32 1020.35 1020.39 1020.45
1010.98 1012.13 1013.51 1014.80 1015.70 1016.13 1015.15 1015.21 1012.54 1012.14 1010.81 1010.06 1010.26 1010.36 1010.59 1010.94 1011.58 1012.04 1012.72 1013.31 1013.77 1014.39 1014.93 1015.39 1016.01 1016.48 1017.01 1017.38 1017.70 1017.95 1018.17 1018.48 1019.11 1019.35 1019.65 1020.05 1020.35 1020.25 1020.13 1020.23 1020.38 1020.48 1020.48 1020.63 1020.64 1020.58 1020.82 1020.99 1021.07
1010.90 1012.41 1014.33 1015.66 1016.48 1016.22 1015.54 1015.30 1012.38 1011.48 1010.87 1010.47 1009.59 1009.70 1009.80 1010.16 1011.09 1011.73 1012.45 1013.10 1013.78 1014.20 1014.75 1015.31 1015.92 1016.43 1016.66 1017.07 1017.41 1017.80 1018.17 1018.54 1019.13 1019.69 1020.10 1020.59 1020.81 1020.96 1021.04 1020.95 1021.01 1020.95 1020.96 1020.92 1021.06 1021.21 1021.28 1021.40 1021.56
1010.71 1011.58 1013.03 1014.65 1016.14 1015.89 1015.70 1014.56 1012.07 1011.85 1011.56 1010.79 1009.66 1009.44 1009.99 1010.34 1011.01 1011.67 1012.02 1012.79 1013.38 1013.58 1014.33 1015.16 1015.86 1016.41 1016.81 1017.34 1017.79 1018.39 1018.81 1019.16 1019.68 1020.15 1020.26 1020.90 1021.34 1021.57 1021.56 1021.42 1021.53 1021.67 1021.63 1021.57 1021.49 1021.40 1021.46 1021.78 1021.78
1010.67 1011.44 1011.56 1013.47 1015.18 1015.61 1014.59 1013.26 1012.19 1012.11 1011.88 1011.73 1011.56 1011.40 1011.85 1012.11 1012.64 1013.19 1013.57 1013.90 1014.27 1014.38 1015.03 1015.83 1016.91 1017.58 1017.63 1018.31 1018.41 1019.00 1019.55 1020.04 1020.48 1020.96 1021.25 1021.52 1021.54 1021.69 1022.00 1022.05 1022.18 1022.20 1022.19 1022.29 1022.09 1022.08 1022.03 1021.74 1021.91
1008.78 1009.91 1011.98 1013.33 1014.78 1015.07 1014.29 1013.56 1012.56 1012.43 1012.71 1013.07 1013.37 1013.73 1013.91 1013.87 1013.97 1014.47 1014.92 1015.35 1015.87 1016.31 1016.63 1016.87 1017.58 1018.59 1018.78 1018.86 1019.18 1019.40 1020.03 1020.43 1020.67 1021.14 1021.38 1021.85 1021.75 1021.68 1021.91 1022.18 1022.41 1022.47 1022.39 1022.26 1022.41 1022.19 1022.46 1022.27 1022.21
1009.36 1010.28 1011.50 1012.23 1013.39 1014.00 1014.15 1013.37 1012.35 1012.67 1013.12 1013.77 1014.30 1014.74 1014.99 1015.08 1015.17 1015.35 1015.72 1016.09 1016.73 1017.49 1017.86 1018.07 1018.82 1020.24 1019.20 1019.23 1019.68 1019.22 1020.32 1020.77 1020.93 1021.25 1021.60 1021.58 1021.71 1021.71 1022.17 1022.10 1022.43 1022.63 1022.68 1022.36 1022.42 1022.43 1022.66 1022.36 1022.31
1008.72 1009.53 1010.44 1012.31 1013.56 1014.01 1013.91 1012.99 1012.67 1012.97 1013.72 1014.46 1015.05 1015.41 1015.51 1015.50 1015.58 1015.74 1015.89 1016.20 1016.98 1017.29 1018.51 1019.02 1017.55 1017.61 1018.89 1017.91 1020.06 1020.17 1020.58 1021.19 1021.28 1021.53 1021.73 1021.74 1021.80 1021.71 1021.95 1022.21 1022.77 1023.00 1022.83 1022.55 1022.41 1022.63 1022.73 1022.38 1022.47
Wind_Speed
4 4 1 1 5 5 3 3 3 7 5 3 5 3 9 4 1 4 2 4 7 5 4 4 6 9 10 10 10 10 10 11 11 13 12 12 12 12 12 13 13 13 14 13 13 12 11 10 10
2 3 2 2 6 5 2 4 12 4 5 11 6 3 5 4 4 7 4 5 6 6 4 4 7 8 8 7 9 10 9 10 10 11 11 11 11 11 12 13 12 13 13 12 11 10 9 10 10
2 2 2 3 3 3 4 6 9 12 9 4 5 4 3 4 6 4 5 8 7 6 4 4 8 9 7 6 9 8 9 9 9 10 10 10 10 11 10 12 12 11 10 9 8 8 8 8 7
2 4 3 4 4 1 4 10 14 10 6 4 10 8 5 5 2 5 9 8 7 5 4 5 5 8 8 8 8 7 7 8 10 9 8 9 9 10 11 10 9 8 8 7 6 7 7 6 5
2 2 4 2 3 4 6 8 2 5 5 5 3 5 5 3 11 10 8 8 7 5 4 4 6 10 7 6 5 8 6 6 7 7 7 9 10 9 8 8 7 7 7 7 7 7 6 6 6
4 2 4 2 4 5 5 4 3 5 6 8 10 6 3 8 9 7 8 7 5 6 5 3 8 8 6 4 4 10 7 6 6 6 6 7 7 6 6 6 6 6 6 7 8 7 7 6 4
3 2 2 5 6 4 4 6 5 6 7 5 5 5 6 5 6 7 6 6 5 5 5 4 4 5 5 5 7 9 7 6 6 6 6 6 5 4 4 4 4 4 5 5 6 5 5 3 2
3 2 2 4 7 4 9 3 9 6 4 8 9 5 9 6 8 8 6 5 5 4 4 4 3 3 4 4 6 7 7 7 6 6 6 4 3 4 1 2 1 1 1 3 4 4 3 0 3
2 3 2 4 9 6 11 7 3 5 7 1 3 10 10 13 11 9 5 3 3 3 3 3 3 2 3 1 3 6 8 8 6 5 6 3 2 3 4 4 4 2 1 1 2 3 2 1 2
3 2 6 6 7 12 9 10 8 6 3 8 12 15 15 14 11 10 7 5 4 4 4 4 3 3 2 1 2 2 3 2 2 2 3 3 3 3 3 4 4 4 5 5 6 5 3 1 2
3 3 3 4 7 13 11 6 4 12 3 6 21 18 15 13 9 9 7 6 7 4 3 4 4 3 3 1 2 0 0 1 0 3 4 4 2 0 2 2 2 2 4 1 3 2 2 3 2
2 5 4 8 11 9 10 8 8 2 3 13 13 19 15 14 11 9 8 6 6 6 6 5 4 4 4 0 2 1 1 1 1 1 1 2 2 2 2 1 3 3 2 0 2 1 4 4 4
1 5 5 8 10 11 10 7 6 3 13 14 14 15 15 13 10 6 5 5 4 5 6 7 6 5 5 4 2 2 2 1 1 2 2 1 1 2 2 2 2 3 2 2 2 3 3 3 4
2 2 6 7 10 8 9 5 5 5 13 15 16 15 13 13 13 7 7 7 7 6 6 6 7 7 6 4 3 3 3 3 1 2 3 4 1 2 2 2 1 2 3 2 1 2 4 1 3
5 12 10 8 5 5 12 2 3 13 14 16 14 12 12 12 11 11 12 10 9 6 6 8 7 6 6 5 5 4 4 3 3 2 2 3 2 3 4 3 2 2 2 3 1 3 3 3 3
6 7 3 0 5 3 3 3 3 12 15 14 13 12 12 13 13 11 11 11 8 6 8 7 7 6 5 5 4 4 4 3 3 3 3 3 2 1 2 1 3 2 2 2 1 1 2 3 4
8 3 3 3 2 7 3 3 8 11 12 12 13 13 12 10 9 11 12 12 12 10 7 8 7 6 5 5 4 4 3 3 4 2 3 4 4 1 1 2 2 2 2 2 2 1 1 3 4
3 5 3 7 5 5 5 3 8 11 11 12 11 12 12 13 17 13 14 13 11 9 8 7 6 6 6 2 1 1 1 2 1 2 4 4 2 3 3 1 3 3 2 1 2 2 1 2 3
6 6 4 2 3 3 3 5 12 11 7 8 9 9 10 12 13 12 13 12 10 8 7 9 8 7 4 3 2 1 2 1 2 3 2 3 2 1 3 1 0 2 2 3 3 1 2 2 2
5 3 4 2 3 4 3 4 7 12 16 16 14 13 13 11 8 8 11 12 12 13 12 9 12 7 6 3 2 2 2 1 1 2 3 4 4 4 2 2 3 2 0 1 1 1 1 0 0
5 8 6 1 3 4 5 7 6 11 13 13 13 12 13 15 12 11 12 14 12 12 12 10 8 8 6 6 3 2 3 3 2 1 2 3 3 3 4 5 3 4 4 3 3 3 4 1 1
6 6 6 6 4 0 4 6 5 8 16 15 16 11 14 13 12 12 14 13 14 14 12 11 10 8 7 7 5 5 4 4 3 2 2 1 4 5 5 5 4 3 4 5 5 5 3 3 4
4 10 7 8 5 2 1 2 8 3 13 19 18 16 15 14 14 14 15 15 14 11 12 11 9 7 6 7 6 4 4 3 2 3 5 4 5 6 6 6 6 6 4 5 5 5 6 4 3
11 13 9 6 3 4 6 7 8 5 9 7 15 19 16 15 15 14 12 10 11 8 9 9 10 7 7 7 7 7 7 6 5 4 4 4 3 4 7 7 6 6 6 6 6 6 8 6 5
5 6 3 3 1 7 2 3 11 6 10 9 12 17 18 17 15 13 12 12 8 10 9 9 10 7 7 7 7 5 3 4 6 6 5 4 2 3 5 5 6 5 6 6 5 7 7 6 6
9 8 7 8 6 5 4 8 8 1 7 7 5 9 9 12 11 11 13 12 12 14 12 10 9 6 5 7 5 6 6 5 5 5 6 5 4 3 4 6 6 7 7 6 6 6 5 5 5
6 4 3 7 3 2 5 8 3 2 8 10 12 13 11 13 13 13 12 7 3 6 8 9 8 7 10 9 8 10 9 9 8 8 7 4 4 4 5 6 7 6 7 6 5 5 6 5 4
8 7 3 2 6 6 5 5 7 2 2 5 7 9 9 11 13 13 13 13 12 10 11 13 13 11 9 10 9 9 9 8 8 7 8 5 4 4 6 6 5 5 5 6 5 5 5 5 5
2 3 2 6 5 6 3 8 3 3 4 5 5 6 7 9 10 11 12 13 12 10 12 15 15 8 10 8 10 10 4 8 8 7 5 6 5 5 5 5 3 1 2 3 4 4 4 6 5
4 3 4 7 5 1 3 8 3 6 7 6 4 6 5 7 7 8 10 12 10 10 6 2 4 14 8 8 6 8 7 5 6 7 7 6 6 5 6 5 3 2 2 3 4 4 3 4 4
Wind_Direction
196 203 164 39 54 69 43 46 59 97 143 86 79 110 113 35 71 158 94 145 118 116 111 126 124 112 106 107 103 98 95 96 96 96 96 99 102 97 93 96 92 84 82 82 80 77 76 83 84
230 214 23 73 78 69 9 89 122 115 124 109 89 103 60 73 66 107 107 135 118 118 110 116 108 112 105 102 105 106 99 91 92 98 105 104 98 97 94 88 88 85 83 86 86 89 90 89 89
235 331 61 76 105 133 128 109 119 135 148 124 115 58 68 87 110 134 139 133 118 111 116 142 126 113 108 107 98 94 100 99 99 91 97 101 99 98 96 90 82 80 86 87 86 83 80 77 76
28 9 41 72 87 156 119 133 134 141 107 97 114 79 75 106 115 146 133 120 106 108 108 110 102 98 101 88 88 94 98 100 100 104 105 111 100 96 86 87 86 84 78 82 86 81 77 73 64
52 75 47 69 43 71 81 126 105 82 82 91 71 95 77 42 111 122 121 114 115 123 131 121 148 110 105 116 123 118 113 107 104 108 97 89 90 89 88 88 87 81 80 79 84 94 97 82 69
38 66 69 78 72 66 63 91 61 56 73 114 93 95 67 133 118 128 114 110 124 138 119 147 114 108 124 141 162 129 129 123 118 101 89 84 84 88 90 82 76 75 81 85 89 101 95 83 80
87 40 147 120 113 103 143 127 91 84 102 60 117 91 125 150 136 118 107 114 122 99 97 91 89 139 167 126 86 124 127 123 111 106 104 100 101 91 81 81 83 74 66 79 97 109 102 111 122
82 99 118 127 148 131 134 89 119 98 45 128 143 141 157 174 132 104 95 101 107 109 116 118 84 82 60 51 116 115 117 116 121 123 115 123 138 121 137 109 57 75 84 103 107 105 101 114 220
115 54 150 148 157 132 134 132 94 94 131 93 92 129 126 135 120 113 109 89 117 139 143 141 128 96 77 69 145 126 130 130 138 134 137 151 197 212 164 192 203 188 213 169 191 172 172 10 282
100 77 202 190 151 154 141 130 127 124 108 89 95 103 124 133 138 142 162 167 177 173 176 167 161 155 137 264 121 121 105 133 171 160 200 212 210 231 244 222 224 221 211 228 239 232 210 306 346
175 215 259 158 132 134 129 113 100 131 118 192 145 141 144 146 151 160 179 185 183 175 181 183 175 179 168 206 140 97 133 219 346 249 244 268 257 277 231 200 245 249 216 226 268 253 263 276 284
256 231 236 142 138 121 140 114 112 85 191 144 144 147 149 157 166 176 180 189 178 169 188 196 188 188 198 174 179 236 247 184 134 225 128 2 350 70 117 144 196 196 210 70 31 292 276 280 301
233 326 98 112 115 117 118 108 118 60 123 134 142 154 163 165 171 186 170 175 174 193 186 190 181 199 207 214 202 217 263 250 204 271 217 174 21 72 50 124 194 227 128 137 166 234 281 316 352
318 282 80 100 133 129 111 114 90 135 132 142 157 167 172 172 178 173 183 188 189 190 202 186 192 197 191 212 234 229 219 235 270 293 248 237 166 117 89 49 264 290 37 112 194 281 271 291 268
327 85 68 31 39 81 106 39 156 150 148 154 171 176 180 185 179 190 193 192 194 199 185 193 201 204 204 198 217 230 229 215 212 238 262 285 334 18 121 145 230 198 149 117 52 318 315 270 235
37 55 66 51 100 183 88 229 131 156 157 171 177 186 192 198 190 193 193 194 195 186 188 195 202 205 208 215 203 215 230 248 245 213 201 206 219 181 86 345 286 295 150 128 146 261 286 309 341
17 92 49 176 70 155 174 183 174 170 169 180 190 195 199 199 200 206 197 191 196 187 194 190 205 212 201 188 177 187 219 250 253 209 217 216 191 190 146 186 259 239 146 162 204 294 341 336 338
134 146 210 191 214 174 150 181 162 177 181 193 198 203 206 205 211 201 201 196 193 191 179 190 193 189 180 207 147 113 204 210 224 198 213 202 229 176 180 174 148 170 155 231 273 287 247 265 314
206 144 218 329 48 337 159 137 185 188 197 192 213 217 206 213 219 204 196 196 183 181 174 181 184 197 158 169 157 192 207 254 41 43 89 178 165 205 204 223 103 104 140 185 200 253 298 315 1
277 56 244 342 6 82 18 264 196 189 213 207 202 209 215 216 191 193 193 184 187 185 191 188 195 182 186 184 179 177 169 165 100 69 51 25 49 34 74 54 41 31 191 247 144 168 168 158 279
212 197 193 332 50 70 360 303 185 207 212 225 228 232 214 207 198 189 186 190 183 189 191 188 194 187 185 184 142 99 81 59 52 14 63 34 47 74 65 52 53 29 18 15 357 16 45 2 336
224 177 120 109 75 277 16 283 275 205 208 213 220 210 223 206 198 195 189 188 190 195 188 191 186 183 190 177 187 176 173 163 197 151 131 54 46 86 81 70 61 46 48 37 31 28 29 7 26
248 162 119 103 83 87 236 290 271 108 233 222 216 216 206 205 191 190 192 196 196 185 186 186 182 183 182 177 190 185 174 159 129 102 99 80 58 51 62 63 64 58 64 60 61 55 56 45 42
121 75 56 61 57 308 211 172 271 197 252 264 211 219 211 200 199 196 190 184 192 179 180 176 175 182 173 173 183 195 185 156 133 117 101 88 67 51 55 56 52 54 55 49 55 60 57 45 49
79 84 36 17 54 232 252 173 250 310 306 279 233 215 210 196 191 187 179 177 170 169 173 167 173 182 180 177 176 201 198 128 130 134 127 95 66 49 43 55 49 48 50 54 61 57 57 50 47
178 160 158 193 196 240 84 237 250 342 342 348 313 202 195 190 193 193 185 178 178 183 169 165 166 146 114 96 83 81 81 88 91 96 100 106 89 62 57 65 61 53 46 47 54 62 65 44 55
217 226 189 100 27 94 214 280 244 31 31 31 39 58 61 67 62 55 43 24 61 120 131 116 93 79 83 79 83 76 71 75 78 75 73 71 80 83 59 56 61 58 56 44 54 51 41 55 52
155 164 76 6 161 218 258 267 243 309 58 52 52 64 61 69 70 68 58 50 45 53 69 75 78 90 83 85 75 80 87 92 99 98 96 85 78 85 87 71 55 50 68 77 55 61 39 47 38
139 195 92 129 123 179 226 258 266 225 180 119 92 90 98 87 89 91 87 77 68 69 79 88 81 32 60 113 115 92 93 102 92 90 85 86 80 84 71 80 95 108 88 68 67 80 45 51 34
151 243 147 123 241 187 158 274 346 132 135 149 140 137 138 133 122 126 128 119 117 117 83 46 132 147 172 101 126 121 122 112 110 115 114 126 138 118 120 99 114 107 67 70 74 60 36 38 10